This demonstration page uses our WeatherBlox Daily Observations layout. Learn more.

Left ArrowRight Arrow

36.19886, -115.1175

Hourly Observations for August 11, 2015

Temp ( °F °C ) Dew Point ( °F °C ) Humidity (%) Winds ( mph kmh ) Pressure ( in mb ) Visibility ( mi km ) Precip ( " mm )
12:53 am 00:53 Clear 90 32.2 37 2.8 15 15 SSE 5 7 29.80 1009 10 16 0.00 0.00
1:53 am 01:53 Clear 87 30.6 38 3.3 18 18 SE 5 7 29.80 1009 10 16 0.00 0.00
2:53 am 02:53 Clear 84 28.9 38 3.3 19 19 E 8 13 29.80 1009 10 16 0.00 0.00
3:53 am 03:53 Clear 84 28.9 39 3.9 20 20 Calm 29.81 1010 10 16 0.00 0.00
4:53 am 04:53 Clear 82 27.8 44 6.7 26 26 Calm 29.82 1010 10 16 0.00 0.00
5:53 am 05:53 Mostly Clear 81 27.2 45 7.2 28 28 Calm 29.83 1010 10 16 0.00 0.00
6:53 am 06:53 Sunny 82 27.8 46 7.8 28 28 NW 3 6 29.86 1011 10 16 0.00 0.00
7:53 am 07:53 Mostly Sunny 86 30 44 6.7 23 23 NE 3 6 29.87 1012 10 16 0.00 0.00
8:53 am 08:53 Mostly Cloudy 89 31.7 43 6.1 20 20 Calm 29.88 1012 10 16 0.00 0.00
9:53 am 09:53 Sunny 92 33.3 44 6.7 19 19 E 8 13 29.88 1012 10 16 0.00 0.00
10:53 am 10:53 Sunny 95 35 49 9.4 21 21 VRB 7 11 29.87 1012 10 16 0.00 0.00
11:53 am 11:53 Sunny 98 36.7 51 10.6 20 20 SSE 9 15 29.84 1011 10 16 0.00 0.00
12:53 pm 12:53 Mostly Sunny 102 38.9 50 10 17 17 SSE 23 37 29.82 1010 10 16 0.00 0.00
1:53 pm 13:53 Mostly Sunny 102 38.9 51 10.6 18 18 S 16 26 29.81 1009 10 16 0.00 0.00
2:53 pm 14:53 Sunny 102 38.9 49 9.4 17 17 SSE 21 33 29.80 1009 10 16 0.00 0.00
3:36 pm 15:36 Mostly Sunny 104 40 48 9 15 15 SSE 23 37 29.59 1002 10 16 0.00 0.00
3:53 pm 15:53 Sunny 102 38.9 47 8.3 15 15 SSE 21 33 29.79 1009 10 16 0.00 0.00
4:53 pm 16:53 Mostly Cloudy 95 35 59 15 30 30 ESE 31 50 29.80 1009 10 16 0.00 0.00
5:53 pm 17:53 Sunny 92 33.3 58 14.4 32 32 E 20 31 29.82 1010 10 16 0.00 0.00
6:53 pm 18:53 Sunny 92 33.3 59 15 33 33 E 20 31 29.84 1010 10 16 0.00 0.00
7:53 pm 19:53 Clear 90 32.2 58 14.4 34 34 E 22 35 29.85 1011 10 16 0.00 0.00
8:53 pm 20:53 Clear 88 31.1 60 15.6 39 39 E 17 28 29.88 1012 10 16 0.00 0.00
9:53 pm 21:53 Clear 88 31.1 59 15 38 38 E 12 19 29.90 1013 10 16 0.00 0.00
10:53 pm 22:53 Clear 87 30.6 58 14.4 37 37 E 10 17 29.92 1013 10 16 0.00 0.00
11:53 pm 23:53 Clear 86 30 57 13.9 37 37 ENE 8 13 29.93 1014 10 16 0.00 0.00

Powered by AerisWeather